Elkins, WV

11:47 AM EDT on August 16, 2017 (GMT -0400)
Elkins-Randolph County

Weather History for KEKN - December, 2014

Change the Weather History Date:

Thursday, December 11, 2014

  Actual Average Record
Temperature  
Mean Temperature 28 °F 34 °F  
Max Temperature 32 °F 43 °F 68 °F (2007)
Min Temperature 24 °F 24 °F -8 °F (1917)
Degree Days  
Heating Degree Days 37 32  
Month to date heating degree days 285 330  
Since 1 July heating degree days 1641 1614  
Cooling Degree Days 0 0  
Month to date cooling degree days 0 0  
Year to date cooling degree days 505 475  
Moisture  
Dew Point 17 °F    
Average Humidity 65    
Maximum Humidity 81    
Minimum Humidity 49    
Precipitation  
Precipitation T in 0.11 in 1.84 in (2008)
Month to date precipitation 2.88 1.24  
Year to date precipitation 41.26 43.91  
Snow  
Snow 0.00 in - - ()
Month to date snowfall T  
Since 1 September snowfall 7.6  
Snow Depth 0.00 in    
Sea Level Pressure  
Sea Level Pressure 30.09 in    
Wind  
Wind Speed 9 mph (West)    
Max Wind Speed 21 mph    
Max Gust Speed 29 mph    
Visibility 10 miles    
Events      
T = Trace of Precipitation, MM = Missing Value Source: NWS Daily Summary

Daily Weather History Graph

Daily Weather History Graph

Search for Another Location

Airport or City:

Trip Planner

Search our weather history database for the weather conditions in past years. The results will help you decide how hot, cold, wet, or windy it might be!

Date:

Astronomy

Dec. 11, 2014 Rise Set
Actual Time 7:27 AM EST 4:57 PM EST
Civil Twilight 6:58 AM EST 5:27 PM EST
Nautical Twilight 6:24 AM EST 6:00 PM EST
Astronomical Twilight 5:52 AM EST 6:33 PM EST
Moon 10:04 PM EST (12/11) 10:52 AM EST (12/11)
Length of Visible Light 10h 29m
Length of Day
9h 29m
Waning Gibbous, 75% of the Moon is Illuminated
Dec 11
Waning Gibbous
Dec 14
Last Quarter
Dec 21
New
Dec 28
First Quarter
Jan 4
Full

Hourly Weather History & Observations

Time (EST) Temp. Windchill Dew Point Humidity Pressure Visibility Wind Dir Wind Speed Gust Speed Precip Events Conditions
12:51 AM 25.0 °F 15.5 °F 19.0 °F 78% 30.05 in 10.0 mi WNW 9.2 mph - 0.00 in   Overcast
1:51 AM 25.0 °F 14.8 °F 19.0 °F 78% 30.04 in 9.0 mi WNW 10.4 mph - 0.00 in   Overcast
2:51 AM 25.0 °F 15.5 °F 19.0 °F 78% 30.06 in 10.0 mi WNW 9.2 mph 21.9 mph 0.00 in   Overcast
3:51 AM 24.1 °F 12.5 °F 19.0 °F 81% 30.06 in 10.0 mi West 12.7 mph - N/A   Overcast
4:51 AM 24.1 °F 16.0 °F 18.0 °F 77% 30.06 in 10.0 mi Variable 6.9 mph - N/A   Overcast
5:51 AM 24.1 °F 18.2 °F 19.0 °F 81% 30.06 in 10.0 mi WSW 4.6 mph - N/A   Overcast
6:51 AM 25.0 °F 19.3 °F 19.0 °F 78% 30.07 in 10.0 mi Variable 4.6 mph - N/A   Overcast
7:51 AM 25.0 °F 15.5 °F 18.0 °F 75% 30.08 in 10.0 mi SW 9.2 mph - N/A   Overcast
8:51 AM 25.0 °F - 19.0 °F 78% 30.10 in 10.0 mi North - - N/A   Overcast
9:51 AM 26.1 °F 16.2 °F 19.0 °F 75% 30.11 in 10.0 mi WNW 10.4 mph - N/A   Overcast
10:51 AM 26.1 °F 15.0 °F 17.1 °F 69% 30.11 in 10.0 mi WSW 12.7 mph 18.4 mph N/A   Overcast
11:33 AM 28.0 °F 17.0 °F 17.1 °F 63% 30.00 in 10.0 mi West 13.8 mph 24.2 mph N/A   Scattered Clouds
11:51 AM 28.0 °F 17.5 °F 18.0 °F 66% 30.09 in 10.0 mi WSW 12.7 mph 19.6 mph N/A   Clear
12:51 PM 30.0 °F 23.2 °F 18.0 °F 61% 30.07 in 10.0 mi Variable 6.9 mph - N/A   Clear
1:51 PM 32.0 °F 23.6 °F 17.1 °F 54% 30.06 in 10.0 mi West 10.4 mph 21.9 mph N/A   Clear
2:51 PM 32.0 °F 24.2 °F 17.1 °F 54% 30.06 in 10.0 mi West 9.2 mph 16.1 mph N/A   Clear
3:51 PM 32.0 °F 26.4 °F 17.1 °F 54% 30.08 in 10.0 mi Variable 5.8 mph - N/A   Clear
4:51 PM 30.9 °F 22.8 °F 16.0 °F 54% 30.09 in 10.0 mi West 9.2 mph - N/A   Clear
5:51 PM 30.9 °F 23.5 °F 15.1 °F 52% 30.11 in 10.0 mi West 8.1 mph 21.9 mph N/A   Clear
6:51 PM 30.0 °F 22.4 °F 15.1 °F 54% 30.13 in 10.0 mi WSW 8.1 mph - N/A   Clear
7:51 PM 30.9 °F 22.8 °F 14.0 °F 50% 30.14 in 10.0 mi West 9.2 mph - N/A   Clear
8:51 PM 30.0 °F 22.4 °F 14.0 °F 51% 30.16 in 10.0 mi West 8.1 mph 17.3 mph N/A   Clear
9:51 PM 28.9 °F - 14.0 °F 54% 30.16 in 10.0 mi North - - N/A   Clear
10:51 PM 28.9 °F 21.9 °F 14.0 °F 54% 30.17 in 10.0 mi West 6.9 mph 21.9 mph N/A   Clear
11:51 PM 28.9 °F 21.1 °F 16.0 °F 58% 30.17 in 10.0 mi WNW 8.1 mph - N/A   Clear